Volver al catálogo

OPS 4682 DEB

ActivoPO
NORAD 49111·DEBRIS·🇺🇸 United States

Lanzado Apr 3, 1965 desde Vandenberg Space Force Base

Loading…

Próximos Pases (próximas 24 horas)

TLE

ActualizadoSource: Space-Track

Época: Sep 13, 2026, 02:27 UTC

1 49111U 65027FU  26256.10268179  .00000006  00000-0 -43818-5 0  9997
2 49111  90.2572  10.3012 0025303  35.7648 324.5159 12.93069565498068

Sigue OPS 4682 DEB en tiempo real con AllMySat

Download on the App Store